[keps] orb10308.amsat
Ray Hoad
ray.hoad at mypbmail.com
Thu Nov 4 18:57:21 PDT 2010
SB KEPS @ AMSAT $ORB10308.O
Orbital Elements 10308.OSCAR
HR AMSAT ORBITAL ELEMENTS FOR OSCAR SATELLITES
FROM WA5QGD FORT WORTH,TX November 4, 2010
BID: ORB10308.O
TO ALL RADIO AMATEURS BT
Satellite: AO-07
Catalog number: 07530
Epoch time: 10307.94333968
Element set: 0921
Inclination: 101.3988 deg
RA of node: 318.3720 deg
Eccentricity: 0.0012117
Arg of perigee: 001.3722 deg
Mean anomaly: 358.7376 deg
Mean motion: 12.53580035 rev/day
Decay rate: -2.7e-07 rev/day^2
Epoch rev: 64596
Checksum: 293
Satellite: FO-29
Catalog number: 24278
Epoch time: 10307.94799780
Element set: 0432
Inclination: 098.5192 deg
RA of node: 117.8001 deg
Eccentricity: 0.0351358
Arg of perigee: 121.2420 deg
Mean anomaly: 242.3644 deg
Mean motion: 13.52954432 rev/day
Decay rate: 5.4e-07 rev/day^2
Epoch rev: 70200
Checksum: 288
Satellite: SO-33
Catalog number: 25509
Epoch time: 10307.48736396
Element set: 828
Inclination: 031.4300 deg
RA of node: 080.7548 deg
Eccentricity: 0.0353443
Arg of perigee: 067.9334 deg
Mean anomaly: 295.8409 deg
Mean motion: 14.28335721 rev/day
Decay rate: 5.0e-07 rev/day^2
Epoch rev: 62798
Checksum: 320
Satellite: RS-22
Catalog number: 27939
Epoch time: 10308.63011096
Element set: 692
Inclination: 097.8702 deg
RA of node: 167.9987 deg
Eccentricity: 0.0013357
Arg of perigee: 340.5498 deg
Mean anomaly: 019.5204 deg
Mean motion: 14.63470938 rev/day
Decay rate: 9.0e-07 rev/day^2
Epoch rev: 37949
Checksum: 339
Satellite: VO-52
Catalog number: 28650
Epoch time: 10308.58962580
Element set: 638
Inclination: 097.6746 deg
RA of node: 356.4149 deg
Eccentricity: 0.0026833
Arg of perigee: 174.7435 deg
Mean anomaly: 185.4068 deg
Mean motion: 14.81842959 rev/day
Decay rate: 5.46e-06 rev/day^2
Epoch rev: 29748
Checksum: 362
Satellite: SO-67
Catalog number: 35870
Epoch time: 10308.64760125
Element set: 257
Inclination: 097.3151 deg
RA of node: 353.9407 deg
Eccentricity: 0.0002797
Arg of perigee: 358.1598 deg
Mean anomaly: 148.0533 deg
Mean motion: 15.21153176 rev/day
Decay rate: 8.16e-06 rev/day^2
Epoch rev: 6280
Checksum: 311
Satellite: HO-68
Catalog number: 36122
Epoch time: 10308.63512288
Element set: 817
Inclination: 100.4520 deg
RA of node: 007.5302 deg
Eccentricity: 0.0007691
Arg of perigee: 019.4330 deg
Mean anomaly: 340.7071 deg
Mean motion: 13.16282532 rev/day
Decay rate: -4.5e-07 rev/day^2
Epoch rev: 4269
Checksum: 260
/EX
SB KEPS @ AMSAT $ORB10308.D
Orbital Elements 10308.MICROS
HR AMSAT ORBITAL ELEMENTS FOR THE MICROSATS
FROM WA5QGD FORT WORTH,TX November 4, 2010
BID: ORB10308.D
TO ALL RADIO AMATEURS BT
Satellite: UO-11
Catalog number: 14781
Epoch time: 10307.65019712
Element set: 0383
Inclination: 098.0395 deg
RA of node: 359.6784 deg
Eccentricity: 0.0009583
Arg of perigee: 142.4891 deg
Mean anomaly: 217.7011 deg
Mean motion: 14.79852594 rev/day
Decay rate: 1.89e-06 rev/day^2
Epoch rev: 43243
Checksum: 326
Satellite: AO-16
Catalog number: 20439
Epoch time: 10307.80697865
Element set: 0036
Inclination: 098.3519 deg
RA of node: 260.3476 deg
Eccentricity: 0.0011828
Arg of perigee: 110.2715 deg
Mean anomaly: 249.9747 deg
Mean motion: 14.31881338 rev/day
Decay rate: 4.9e-07 rev/day^2
Epoch rev: 08536
Checksum: 322
Satellite: LO-19
Catalog number: 20442
Epoch time: 10307.64263469
Element set: 0946
Inclination: 098.3149 deg
RA of node: 265.4324 deg
Eccentricity: 0.0012956
Arg of perigee: 106.3814 deg
Mean anomaly: 253.8797 deg
Mean motion: 14.32109960 rev/day
Decay rate: -2.2e-07 rev/day^2
Epoch rev: 08551
Checksum: 309
Satellite: AO-27
Catalog number: 22825
Epoch time: 10307.81122630
Element set: 0668
Inclination: 098.5012 deg
RA of node: 252.2530 deg
Eccentricity: 0.0007752
Arg of perigee: 214.6314 deg
Mean anomaly: 145.4381 deg
Mean motion: 14.29314220 rev/day
Decay rate: 2.0e-07 rev/day^2
Epoch rev: 89199
Checksum: 271
Satellite: IO-26
Catalog number: 22826
Epoch time: 10307.78162046
Element set: 0406
Inclination: 098.4969 deg
RA of node: 252.7760 deg
Eccentricity: 0.0008442
Arg of perigee: 208.6328 deg
Mean anomaly: 151.4396 deg
Mean motion: 14.29572362 rev/day
Decay rate: 4.4e-07 rev/day^2
Epoch rev: 89210
Checksum: 313
Satellite: GO-32
Catalog number: 25397
Epoch time: 10307.79731601
Element set: 0325
Inclination: 098.3175 deg
RA of node: 307.5864 deg
Eccentricity: 0.0001001
Arg of perigee: 164.1068 deg
Mean anomaly: 196.0145 deg
Mean motion: 14.23188000 rev/day
Decay rate: -9.8e-07 rev/day^2
Epoch rev: 63990
Checksum: 289
Satellite: NO-44
Catalog number: 26931
Epoch time: 10307.70447013
Element set: 0599
Inclination: 067.0520 deg
RA of node: 204.5099 deg
Eccentricity: 0.0005719
Arg of perigee: 271.8748 deg
Mean anomaly: 088.1696 deg
Mean motion: 14.29619086 rev/day
Decay rate: 4.2e-07 rev/day^2
Epoch rev: 47469
Checksum: 328
Satellite: SO-50
Catalog number: 27607
Epoch time: 10307.93448200
Element set: 0310
Inclination: 064.5583 deg
RA of node: 292.0324 deg
Eccentricity: 0.0045836
Arg of perigee: 019.9234 deg
Mean anomaly: 340.3674 deg
Mean motion: 14.71597834 rev/day
Decay rate: 1.77e-06 rev/day^2
Epoch rev: 42294
Checksum: 301
Satellite: CO-55
Catalog number: 27844
Epoch time: 10307.53910652
Element set: 0971
Inclination: 098.7105 deg
RA of node: 314.5232 deg
Eccentricity: 0.0010219
Arg of perigee: 125.4947 deg
Mean anomaly: 234.7185 deg
Mean motion: 14.20742323 rev/day
Decay rate: 9.0e-07 rev/day^2
Epoch rev: 38087
Checksum: 293
Satellite: CO-57
Catalog number: 27848
Epoch time: 10307.51872373
Element set: 918
Inclination: 098.7157 deg
RA of node: 313.6261 deg
Eccentricity: 0.0010190
Arg of perigee: 130.6543 deg
Mean anomaly: 229.5514 deg
Mean motion: 14.20531067 rev/day
Decay rate: 3.8e-07 rev/day^2
Epoch rev: 38082
Checksum: 298
Satellite: AO-51
Catalog number: 28375
Epoch time: 10307.46858293
Element set: 0816
Inclination: 098.0740 deg
RA of node: 293.1280 deg
Eccentricity: 0.0085074
Arg of perigee: 034.9119 deg
Mean anomaly: 325.7611 deg
Mean motion: 14.40707087 rev/day
Decay rate: 5.8e-07 rev/day^2
Epoch rev: 33356
Checksum: 313
Satellite: GENESAT1
Catalog number: 29655
Epoch time: 10216.61700559
Element set: 226
Inclination: 040.0059 deg
RA of node: 067.3006 deg
Eccentricity: 0.0005079
Arg of perigee: 297.8744 deg
Mean anomaly: 064.7087 deg
Mean motion: 16.44862838 rev/day
Decay rate: 1.0637092e-01 rev/day^2
Epoch rev: 20777
Checksum: 320
Satellite: CP3
Catalog number: 31129
Epoch time: 10307.59527776
Element set: 714
Inclination: 097.9259 deg
RA of node: 339.6054 deg
Eccentricity: 0.0102454
Arg of perigee: 160.7695 deg
Mean anomaly: 199.7393 deg
Mean motion: 14.52326486 rev/day
Decay rate: 1.11e-06 rev/day^2
Epoch rev: 18809
Checksum: 331
Satellite: CO-65
Catalog number: 32785
Epoch time: 10307.21104525
Element set: 0827
Inclination: 097.8808 deg
RA of node: 010.0963 deg
Eccentricity: 0.0014410
Arg of perigee: 188.6064 deg
Mean anomaly: 171.4897 deg
Mean motion: 14.81752404 rev/day
Decay rate: 3.78e-06 rev/day^2
Epoch rev: 13607
Checksum: 304
Satellite: KKS-1
Catalog number: 33493
Epoch time: 10308.70987808
Element set: 6
Inclination: 098.1013 deg
RA of node: 069.5418 deg
Eccentricity: 0.0020830
Arg of perigee: 049.3044 deg
Mean anomaly: 310.9977 deg
Mean motion: 14.81178570 rev/day
Decay rate: 6.02e-06 rev/day^2
Epoch rev: 9628
Checksum: 301
Satellite: SOHLA-1
Catalog number: 33496
Epoch time: 10307.81494803
Element set: 0248
Inclination: 098.0674 deg
RA of node: 055.1576 deg
Eccentricity: 0.0007507
Arg of perigee: 115.3301 deg
Mean anomaly: 244.8696 deg
Mean motion: 14.69529411 rev/day
Decay rate: 7.1e-07 rev/day^2
Epoch rev: 09538
Checksum: 309
Satellite: TISAT-1
Catalog number: 36799
Epoch time: 10308.73215025
Element set: 281
Inclination: 098.1326 deg
RA of node: 009.4777 deg
Eccentricity: 0.0014284
Arg of perigee: 283.2117 deg
Mean anomaly: 076.7512 deg
Mean motion: 14.80216567 rev/day
Decay rate: 3.63e-06 rev/day^2
Epoch rev: 1710
Checksum: 288
Satellite: STUDSAT
Catalog number: 36801
Epoch time: 10307.75903331
Element set: 0090
Inclination: 098.1361 deg
RA of node: 008.3942 deg
Eccentricity: 0.0013070
Arg of perigee: 274.9228 deg
Mean anomaly: 085.0485 deg
Mean motion: 14.79766046 rev/day
Decay rate: 1.024e-05 rev/day^2
Epoch rev: 01695
Checksum: 284
/EX
SB KEPS @ AMSAT $ORB10308.W
Orbital Elements 10308.WEATHER
HR AMSAT ORBITAL ELEMENTS FOR WEATHER SATELLITES
FROM WA5QGD FORT WORTH,TX November 4, 2010
BID: ORB10308.W
TO ALL RADIO AMATEURS BT
Satellite: NOAA-10
Catalog number: 16969
Epoch time: 10307.64414696
Element set: 0262
Inclination: 098.6456 deg
RA of node: 335.2233 deg
Eccentricity: 0.0012479
Arg of perigee: 161.2363 deg
Mean anomaly: 198.9281 deg
Mean motion: 14.27431908 rev/day
Decay rate: -7.4e-07 rev/day^2
Epoch rev: 25547
Checksum: 320
Satellite: NOAA-11
Catalog number: 19531
Epoch time: 10307.68885548
Element set: 0270
Inclination: 098.7655 deg
RA of node: 034.3112 deg
Eccentricity: 0.0012202
Arg of perigee: 108.1863 deg
Mean anomaly: 252.0651 deg
Mean motion: 14.14939802 rev/day
Decay rate: -2.29e-06 rev/day^2
Epoch rev: 14086
Checksum: 286
Satellite: NOAA-12
Catalog number: 21263
Epoch time: 10307.73473141
Element set: 0765
Inclination: 098.7629 deg
RA of node: 320.8636 deg
Eccentricity: 0.0013164
Arg of perigee: 119.2938 deg
Mean anomaly: 240.9551 deg
Mean motion: 14.25664037 rev/day
Decay rate: 5.5e-07 rev/day^2
Epoch rev: 01228
Checksum: 291
Satellite: MET-3/5
Catalog number: 21655
Epoch time: 10307.96282645
Element set: 0957
Inclination: 082.5584 deg
RA of node: 209.8746 deg
Eccentricity: 0.0013941
Arg of perigee: 005.0232 deg
Mean anomaly: 355.0978 deg
Mean motion: 13.17023636 rev/day
Decay rate: 5.1e-07 rev/day^2
Epoch rev: 92407
Checksum: 307
Satellite: MET-2/21
Catalog number: 22782
Epoch time: 10308.50734280
Element set: 929
Inclination: 082.5451 deg
RA of node: 141.1374 deg
Eccentricity: 0.0022843
Arg of perigee: 012.7875 deg
Mean anomaly: 347.3873 deg
Mean motion: 13.83649879 rev/day
Decay rate: 1.09e-06 rev/day^2
Epoch rev: 86748
Checksum: 328
